When you browse on this site, cookies collect data to enhance your experience and personalize the content and advertising you see.
Visit our Privacy Policy to learn more. By continuing to use the site, you agree to this use of cookies and data.
  • în România
  • Lista ţărilor
  • Pe 7 zile
  • Temperatura apei
  • Hartă satelitară
  • Meteo pe hartă
  • Widget-uri
  • user-avatar
    Intrare

    Meteo pe oră la Kresino

    Astăzi, 21 Martie, Joi

    Timp Temperatura Precipitaţii Vânt Presiune Umiditate
    00:00 -3°C° 0 mm 2 m/s 751 mmHg 91%
    01:00 -3°C° 0 mm 2 m/s 751 mmHg 90%
    02:00 -4°C° 0 mm 3 m/s 750 mmHg 91%
    03:00 -3°C° 0 mm 2 m/s 750 mmHg 92%
    04:00 -3°C° 0 mm 2 m/s 749 mmHg 92%
    05:00 -3°C° 0 mm 2 m/s 749 mmHg 92%
    06:00 -2°C° 0.1 mm 2 m/s 749 mmHg 91%
    07:00 -1°C° 0.1 mm 3 m/s 749 mmHg 91%
    08:00 -1°C° 0.1 mm 3 m/s 749 mmHg 90%
    09:00 0°C° 0 mm 3 m/s 749 mmHg 89%
    10:00 +1°C° 0 mm 3 m/s 749 mmHg 88%
    11:00 +2°C° 0 mm 3 m/s 749 mmHg 86%
    12:00 +2°C° 0 mm 3 m/s 749 mmHg 84%
    13:00 +2°C° 0 mm 3 m/s 749 mmHg 82%
    14:00 +2°C° 0 mm 3 m/s 749 mmHg 81%
    15:00 +2°C° 0 mm 3 m/s 749 mmHg 82%
    16:00 +2°C° 0 mm 2 m/s 749 mmHg 84%
    17:00 +2°C° 0 mm 2 m/s 749 mmHg 85%
    18:00 +1°C° 0 mm 2 m/s 749 mmHg 88%
    19:00 +1°C° 0 mm 2 m/s 749 mmHg 90%
    20:00 -1°C° 0 mm 2 m/s 749 mmHg 92%
    21:00 -1°C° 0 mm 2 m/s 749 mmHg 92%
    22:00 -1°C° 0 mm 2 m/s 748 mmHg 92%
    23:00 -1°C° 0 mm 2 m/s 748 mmHg 92%

    Mâine, 22 Martie, Vineri

    Timp Temperatura Precipitaţii Vânt Presiune Umiditate
    00:00 -1°C° 0 mm 2 m/s 747 mmHg 92%
    01:00 0°C° 0 mm 3 m/s 746 mmHg 92%
    02:00 0°C° 0 mm 3 m/s 746 mmHg 92%
    03:00 0°C° 0.4 mm 3 m/s 744 mmHg 92%
    04:00 -1°C° 0.4 mm 4 m/s 743 mmHg 92%
    05:00 0°C° 0.4 mm 4 m/s 742 mmHg 91%
    06:00 0°C° 1.6 mm 4 m/s 741 mmHg 91%
    07:00 0°C° 1.6 mm 5 m/s 741 mmHg 91%
    08:00 +1°C° 1.6 mm 6 m/s 740 mmHg 91%
    09:00 -1°C° 0.5 mm 6 m/s 741 mmHg 85%
    10:00 -1°C° 0.5 mm 7 m/s 741 mmHg 80%
    11:00 -2°C° 0.5 mm 8 m/s 742 mmHg 75%
    12:00 -2°C° 0 mm 8 m/s 742 mmHg 73%
    13:00 -2°C° 0 mm 8 m/s 743 mmHg 72%
    14:00 -2°C° 0 mm 7 m/s 744 mmHg 70%
    15:00 -2°C° 0.1 mm 7 m/s 744 mmHg 72%
    16:00 -3°C° 0.1 mm 6 m/s 745 mmHg 75%
    17:00 -3°C° 0.1 mm 6 m/s 745 mmHg 77%
    18:00 -3°C° 0.1 mm 6 m/s 746 mmHg 78%
    19:00 -3°C° 0.1 mm 6 m/s 746 mmHg 80%
    20:00 -2°C° 0.1 mm 5 m/s 746 mmHg 82%
    21:00 -2°C° 0 mm 5 m/s 747 mmHg 83%
    22:00 -2°C° 0 mm 5 m/s 748 mmHg 84%
    23:00 -2°C° 0 mm 5 m/s 748 mmHg 85%

    Poimâine, 23 Martie, Sâmbătă

    Timp Temperatura Precipitaţii Vânt Presiune Umiditate
    00:00 -2°C° 0 mm 5 m/s 749 mmHg 86%
    01:00 -2°C° 0 mm 4 m/s 749 mmHg 88%
    02:00 -2°C° 0 mm 4 m/s 750 mmHg 89%
    03:00 -2°C° 0 mm 4 m/s 750 mmHg 90%
    04:00 -3°C° 0 mm 4 m/s 751 mmHg 91%
    05:00 -3°C° 0 mm 4 m/s 752 mmHg 91%
    06:00 -1°C° 0 mm 3 m/s 752 mmHg 90%
    07:00 -1°C° 0 mm 3 m/s 753 mmHg 90%
    08:00 0°C° 0 mm 3 m/s 753 mmHg 89%
    09:00 +1°C° 0 mm 2 m/s 753 mmHg 87%
    10:00 +2°C° 0 mm 2 m/s 753 mmHg 85%
    11:00 +3°C° 0 mm 2 m/s 753 mmHg 83%
    12:00 +4°C° 0 mm 1 m/s 753 mmHg 81%
    13:00 +4°C° 0 mm 1 m/s 753 mmHg 79%
    14:00 +4°C° 0 mm 1 m/s 752 mmHg 77%
    15:00 +4°C° 0 mm 1 m/s 752 mmHg 80%
    16:00 +3°C° 0 mm 1 m/s 752 mmHg 83%
    17:00 +3°C° 0 mm 1 m/s 751 mmHg 86%
    18:00 +1°C° 0 mm 2 m/s 751 mmHg 88%
    19:00 +1°C° 0 mm 2 m/s 751 mmHg 89%
    20:00 -1°C° 0 mm 2 m/s 750 mmHg 90%
    21:00 -1°C° 0 mm 3 m/s 750 mmHg 89%
    22:00 -1°C° 0 mm 3 m/s 749 mmHg 88%
    23:00 0°C° 0 mm 3 m/s 748 mmHg 87%

    24 Martie, Duminică

    Timp Temperatura Precipitaţii Vânt Presiune Umiditate
    00:00 0°C° 0.5 mm 3 m/s 748 mmHg 88%
    01:00 0°C° 0.5 mm 3 m/s 747 mmHg 89%
    02:00 0°C° 0.5 mm 3 m/s 747 mmHg 90%
    03:00 0°C° 0.6 mm 3 m/s 746 mmHg 91%
    04:00 0°C° 0.6 mm 3 m/s 746 mmHg 92%
    05:00 0°C° 0.6 mm 3 m/s 745 mmHg 93%
    06:00 0°C° 0 mm 3 m/s 745 mmHg 92%
    07:00 +1°C° 0 mm 3 m/s 745 mmHg 91%
    08:00 0°C° 0 mm 4 m/s 745 mmHg 90%
    09:00 0°C° 0 mm 4 m/s 745 mmHg 84%
    10:00 +1°C° 0 mm 4 m/s 745 mmHg 78%
    11:00 +3°C° 0 mm 4 m/s 745 mmHg 72%
    12:00 +3°C° 0.3 mm 4 m/s 745 mmHg 72%
    13:00 +1°C° 0.3 mm 5 m/s 745 mmHg 71%
    14:00 +1°C° 0.3 mm 5 m/s 745 mmHg 71%
    15:00 0°C° 0.1 mm 4 m/s 745 mmHg 73%
    16:00 0°C° 0.1 mm 4 m/s 746 mmHg 76%
    17:00 0°C° 0.1 mm 3 m/s 746 mmHg 78%
    18:00 -1°C° 0.1 mm 3 m/s 746 mmHg 79%
    19:00 -1°C° 0.1 mm 3 m/s 746 mmHg 80%
    20:00 -2°C° 0.1 mm 3 m/s 747 mmHg 82%
    21:00 -4°C° 0 mm 3 m/s 747 mmHg 82%
    22:00 -4°C° 0 mm 3 m/s 747 mmHg 83%
    23:00 -5°C° 0 mm 3 m/s 747 mmHg 83%

    25 Martie, Luni

    Timp Temperatura Precipitaţii Vânt Presiune Umiditate
    00:00 -5°C° 0 mm 3 m/s 747 mmHg 85%
    01:00 -5°C° 0 mm 3 m/s 747 mmHg 86%
    02:00 -5°C° 0 mm 3 m/s 747 mmHg 87%
    03:00 -6°C° 0 mm 3 m/s 747 mmHg 87%
    04:00 -6°C° 0 mm 3 m/s 747 mmHg 87%
    05:00 -6°C° 0 mm 3 m/s 747 mmHg 88%
    06:00 -5°C° 0 mm 3 m/s 747 mmHg 85%
    07:00 -5°C° 0 mm 3 m/s 746 mmHg 82%
    08:00 -4°C° 0 mm 3 m/s 746 mmHg 79%
    09:00 -2°C° 0 mm 3 m/s 746 mmHg 72%
    10:00 -1°C° 0 mm 3 m/s 746 mmHg 66%
    11:00 +1°C° 0 mm 3 m/s 746 mmHg 59%
    12:00 +2°C° 0 mm 2 m/s 746 mmHg 57%
    13:00 +3°C° 0 mm 2 m/s 745 mmHg 55%
    14:00 +3°C° 0 mm 2 m/s 745 mmHg 54%
    15:00 +3°C° 0 mm 1 m/s 745 mmHg 58%
    16:00 +3°C° 0 mm 1 m/s 744 mmHg 63%
    17:00 +2°C° 0 mm 1 m/s 744 mmHg 67%
    18:00 +1°C° 0 mm 1 m/s 744 mmHg 70%
    19:00 +1°C° 0 mm 1 m/s 744 mmHg 73%
    20:00 -2°C° 0 mm 2 m/s 744 mmHg 76%
    21:00 -2°C° 0 mm 2 m/s 744 mmHg 76%
    22:00 -3°C° 0 mm 2 m/s 743 mmHg 77%
    23:00 -3°C° 0 mm 2 m/s 743 mmHg 78%

    26 Martie, Marţi

    Timp Temperatura Precipitaţii Vânt Presiune Umiditate
    00:00 -3°C° 0 mm 2 m/s 743 mmHg 78%
    01:00 -3°C° 0 mm 2 m/s 743 mmHg 78%
    02:00 -3°C° 0 mm 2 m/s 743 mmHg 78%
    03:00 -3°C° 0 mm 2 m/s 743 mmHg 77%
    04:00 -3°C° 0 mm 2 m/s 743 mmHg 77%
    05:00 -3°C° 0 mm 2 m/s 742 mmHg 77%
    06:00 -2°C° 0 mm 3 m/s 743 mmHg 74%
    07:00 -2°C° 0 mm 3 m/s 743 mmHg 71%
    08:00 -1°C° 0 mm 3 m/s 743 mmHg 68%
    09:00 -1°C° 0 mm 4 m/s 743 mmHg 64%
    10:00 0°C° 0 mm 4 m/s 743 mmHg 59%
    11:00 +1°C° 0 mm 4 m/s 743 mmHg 54%
    12:00 +1°C° 0 mm 4 m/s 743 mmHg 53%
    13:00 +3°C° 0 mm 4 m/s 743 mmHg 52%
    14:00 +3°C° 0 mm 4 m/s 743 mmHg 50%
    15:00 +1°C° 0 mm 4 m/s 743 mmHg 56%
    16:00 +1°C° 0 mm 3 m/s 743 mmHg 61%
    17:00 +1°C° 0 mm 3 m/s 743 mmHg 66%
    18:00 0°C° 0 mm 3 m/s 744 mmHg 70%
    19:00 -1°C° 0 mm 3 m/s 744 mmHg 74%
    20:00 -1°C° 0 mm 3 m/s 744 mmHg 78%
    21:00 -2°C° 0.1 mm 2 m/s 744 mmHg 80%
    22:00 -2°C° 0.1 mm 2 m/s 744 mmHg 83%
    23:00 -2°C° 0.1 mm 2 m/s 744 mmHg 85%
    Arată mai mult